Regional Weather Roundup
Issued by NWS

Home | Current Version | Previous Version | Text Only | Print | Product List | Glossary Off
Versions: 1 2 3 4 5 6 7 8 9 10 11 12 13 14 15 16 17 18 19 20 21 22 23 24 25 26 27 28 29 30 31 32 33 34 35 36 37 38 39 40 41 42 43 44 45 46 47 48 49 50

000
ASUS43 KMKX 291811
RWRWI

WISCONSIN REGIONAL WEATHER ROUNDUP
NATIONAL WEATHER SERVICE MILWAUKEE/SULLIVAN WI
100 PM CDT MON JUN 29 2015

NOTE: "FAIR" INDICATES FEW OR NO CLOUDS BELOW 12,000 FEET WITH NO
SIGNIFICANT WEATHER AND/OR OBSTRUCTIONS TO VISIBILITY.

WIZ001-002-006>008-014>016-023>028-291900-
NORTHWEST WISCONSIN

CITY           SKY/WX    TMP DP  RH WIND       PRES   REMARKS
SUPERIOR ARPT  PTSUNNY   63  60  90 SW3       29.77F
6HR MIN TEMP:  59; 6HR MAX TEMP:  77; 6HR PCP:  0.33;

ASHLAND        CLOUDY    66  64  93 W7        29.77S
6HR MIN TEMP:  61; 6HR MAX TEMP:  78; 6HR PCP:  0.06;

HAYWARD        TSTM      64  54  69 N12G32    29.83R
6HR MIN TEMP:  60; 6HR MAX TEMP:  77;

SIREN          MOSUNNY   80  62  53 NW9       29.78F HX  81
6HR MIN TEMP:  60; 6HR MAX TEMP:  80;

CUMBERLAND     MOSUNNY   77  59  53 W10       29.80F
RICE LAKE      PTSUNNY   79  62  56 SW8       29.81F HX  80
6HR MIN TEMP:  61; 6HR MAX TEMP:  79;

CHETEK         PTSUNNY   78  66  65 MISG      29.79F HX  80
6HR MIN TEMP:  60; 6HR MAX TEMP:  78;

LADYSMITH      PTSUNNY   76  63  65 SW3       29.81F
6HR MIN TEMP:  58; 6HR MAX TEMP:  76;

EAU CLAIRE     PTSUNNY   78  64  61 W6        29.79F HX  80
6HR MIN TEMP:  62; 6HR MAX TEMP:  78;

MENOMONIE      MOSUNNY   79  65  63 W5        29.81F HX  81
6HR MIN TEMP:  63; 6HR MAX TEMP:  79;

NEW RICHMOND   MOSUNNY   79  62  56 NW9       29.81F HX  81
6HR MIN TEMP:  62; 6HR MAX TEMP:  79;

OSCEOLA        MOSUNNY   80  63  56 W9        29.83F HX  81
6HR MIN TEMP:  61; 6HR MAX TEMP:  80;

$$

WIZ003>005-009-010-017-018-291900-
NORTH CENTRAL WISCONSIN

CITY           SKY/WX    TMP DP  RH WIND       PRES   REMARKS
MANITOWISH WTR MOSUNNY   72  62  69 S6        29.78F
6HR MIN TEMP:  58; 6HR MAX TEMP:  73;

ARBOR VITAE    MOSUNNY   75  60  60 W6        29.79F
6HR MIN TEMP:  58; 6HR MAX TEMP:  75;

WOODRUFF       MOSUNNY   75  60  60 W6        29.79F
6HR MIN TEMP:  58; 6HR MAX TEMP:  75;

RHINELANDER    MOSUNNY   76  56  49 VRB6      29.81F
6HR MIN TEMP:  59; 6HR MAX TEMP:  76;

EAGLE RIVER    MOSUNNY   74  56  53 SW5       29.79F
6HR MIN TEMP:  58; 6HR MAX TEMP:  74;

LAND O LAKES   MOSUNNY   75  57  52 SW3       29.79F
6HR MIN TEMP:  58; 6HR MAX TEMP:  76;

PHILLIPS       PTSUNNY   75  60  57 W5        29.79F
6HR MIN TEMP:  59; 6HR MAX TEMP:  76;

TOMAHAWK       PTSUNNY   73  58  57 W3        29.80F
6HR MIN TEMP:  54; 6HR MAX TEMP:  74;

MEDFORD        MOSUNNY   73  60  63 CALM      29.81F
6HR MIN TEMP:  58; 6HR MAX TEMP:  73;

MERRILL        MOSUNNY   75  59  57 W6        29.80F
6HR MIN TEMP:  57; 6HR MAX TEMP:  75;

$$

WIZ029-030-035-036-043>047-291900-
CENTRAL WISCONSIN

CITY           SKY/WX    TMP DP  RH WIND       PRES   REMARKS
WAUSAU         PTSUNNY   75  57  53 W8        29.79F
6HR MIN TEMP:  62; 6HR MAX TEMP:  76;

MOSINEE        PTSUNNY   73  61  64 W3        29.82F
MARSHFIELD     PTSUNNY   75  60  59 W8        29.82F
6HR MIN TEMP:  63; 6HR MAX TEMP:  75;

STEVENS POINT  MOSUNNY   72  58  62 W5        29.81F
6HR MIN TEMP:  60; 6HR MAX TEMP:  72;

WAUPACA        MOSUNNY   78  62  57 SE6       29.80F HX  80
6HR MIN TEMP:  63; 6HR MAX TEMP:  78;

WAUTOMA        SUNNY     76  62  61 CALM      29.81F
6HR MIN TEMP:  62; 6HR MAX TEMP:  75;

WISC RAPIDS    MOSUNNY   76  59  55 NW9       29.82F
6HR MIN TEMP:  64; 6HR MAX TEMP:  76;

CAMP DOUGLAS   NOT AVBL
$$

WIZ011>013-019>022-031-037>040-048>050-291900-
NORTHEAST WISCONSIN

CITY           SKY/WX    TMP DP  RH WIND       PRES   REMARKS
ANTIGO         CLOUDY    73  61  66 SW3       29.81F
SHAWANO        PTSUNNY   79  58  49 S6        29.80S HX  80
6HR MIN TEMP:  65; 6HR MAX TEMP:  79;

OCONTO         MOSUNNY   76  57  51 S10G16    29.80S
6HR MIN TEMP:  63; 6HR MAX TEMP:  76;

STURGEON BAY   PTSUNNY   72  55  56 S10G16    29.84S
6HR MIN TEMP:  61; 6HR MAX TEMP:  73;

GREEN BAY      MOSUNNY   78  60  53 S12       29.80F
6HR MIN TEMP:  63; 6HR MAX TEMP:  78;

MANITOWOC      PTSUNNY   72  57  59 MISG      29.83S
6HR MIN TEMP:  60; 6HR MAX TEMP:  73;

APPLETON       PTSUNNY   72  55  56 S8        29.81F
CLINTONVILLE   MOSUNNY   77  59  53 S7        29.80S
OSHKOSH        CLOUDY    74  59  59 SE9       29.80F
6HR MIN TEMP:  65; 6HR MAX TEMP:  76;

$$

WIZ032>034-041-042-053>061-291900-
SOUTHWEST WISCONSIN

CITY           SKY/WX    TMP DP  RH WIND       PRES   REMARKS
LA CROSSE      SUNNY     78  63  59 NW7       29.81F HX  80
6HR MIN TEMP:  65; 6HR MAX TEMP:  78;

SPARTA         PTSUNNY   75  60  59 NW3       29.83S
6HR MIN TEMP:  62; 6HR MAX TEMP:  76;

VIROQUA        PTSUNNY   73  62  69 NW7       29.84S
6HR MIN TEMP:  62; 6HR MAX TEMP:  74;

BOSCOBEL       PTSUNNY   78  63  59 NW6       29.82S HX  80
6HR MIN TEMP:  64; 6HR MAX TEMP:  79;

PRAIRIE DU CHI SUNNY     77  62  60 NW5       29.82F
6HR MIN TEMP:  63; 6HR MAX TEMP:  77;

PLATTEVILLE    MOSUNNY   74  63  67 W8        29.83F
6HR MIN TEMP:  62; 6HR MAX TEMP:  74;

$$

WIZ056-057-062-063-064-067-068-291900-
SOUTH CENTRAL WISCONSIN

CITY           SKY/WX    TMP DP  RH WIND       PRES   REMARKS
REEDSBURG      MOSUNNY   74  61  61 N8        29.81S
6HR MIN TEMP:  63; 6HR MAX TEMP:  74;

BARABOO/DELLS  PTSUNNY   74  59  60 W5        29.81S
6HR MIN TEMP:  63; 6HR MAX TEMP:  75;

LONE ROCK      MOSUNNY   75  61  61 NW7       29.82S
6HR MIN TEMP:  64; 6HR MAX TEMP:  77;

MINERAL POINT  LGT RAIN  72  63  73 W7        29.84S
MADISON        PTSUNNY   75  61  61 CALM      29.80F
6HR MIN TEMP:  63; 6HR MAX TEMP:  75; 6HR PCP:  0.03;

MIDDLETON      PTSUNNY   76  59  54 NW6       29.81F
6HR MIN TEMP:  63; 6HR MAX TEMP:  77;

WATERTOWN      CLOUDY    69  66  93 SW6       29.81S
6HR MIN TEMP:  61; 6HR MAX TEMP:  73;

MONROE         PTSUNNY   73  61  64 W8        29.82F
JANESVILLE     MOSUNNY   73  63  68 CALM      29.81
$$

WIZ051-052-058>065-066-070>072-291900-
SOUTHEAST WISCONSIN

CITY           SKY/WX    TMP DP  RH WIND       PRES   REMARKS
MILWAUKEE      PTSUNNY   70  58  65 E8        29.82S
6HR MIN TEMP:  65; 6HR MAX TEMP:  73;

WAUKESHA       MOSUNNY   72  59  64 SE6       29.83F
MILWAUKEE/TIMM PTSUNNY   73  55  53 SE6       29.83S
RACINE         CLOUDY    71  60  68 E7        29.84S
6HR MIN TEMP:  62; 6HR MAX TEMP:  73; 6HR PCP:  0.01;

BURLINGTON     PTSUNNY   71  61  71 CALM      29.82S
6HR MIN TEMP:  59; 6HR MAX TEMP:  71;

KENOSHA        LGT RAIN  68  62  81 E10       29.83S
6HR MIN TEMP:  62; 6HR MAX TEMP:  72; 6HR PCP:  0.01;

FOND DU LAC    PTSUNNY   74  60  61 SE7       29.81F
6HR MIN TEMP:  63; 6HR MAX TEMP:  74;

SHEBOYGAN      PTSUNNY   73  58  59 SE7       29.82F
6HR MIN TEMP:  61; 6HR MAX TEMP:  74;

WEST BEND      PTSUNNY   73  57  56 SE6       29.82S
JUNEAU         CLOUDY    73  61  66 SE5       29.82S
6HR MIN TEMP:  63; 6HR MAX TEMP:  73;

$$

LSZ147-162-291900-
LAKE SUPERIOR

STATION/POSITION TIME  TEMP    WIND        PRES    WAVE
                       AIR SEA DIR/SP/G            HT/PER
                 (UTC) (F)     (DEG/KT/KT) (MB)    (FT/S)
W MID LAKE BUOY  1650   47 38   50/  2/  4 1008.5R   0
DEVILS ISLAND    1800   61      70/  9/ 10 1007.2R
SAXON HARBOR     1800          340/  6/ 24 1007.5R
$$

LMZ867-665-643>646-291900-
LAKE MICHIGAN

STATION/POSITION TIME  TEMP    WIND        PRES    WAVE
                       AIR SEA DIR/SP/G            HT/PER
                 (UTC) (F)     (DEG/KT/KT) (MB)    (FT/S)


USA.gov is the U.S. government's official web portal to all federal, state and local government web resources and services.